When you browse on this site, cookies collect data to enhance your experience and personalize the content and advertising you see.
Visit our Privacy Policy to learn more. By continuing to use the site, you agree to this use of cookies and data.
  • Em Portugal
  • Lista de países
  • Para 7 dias
  • Temperatura da água
  • Mapas de satélite
  • Mapa do tempo
  • Widgets de tempo
  • user-avatar
    Iniciar Sessão

    Previsão horária em Podbor

    Hoje, 17 Junho, Segunda-feira

    Tempo Temperatura Precipitação Vento Pressão Humidade
    00:00 +19°C° 0 mm 3 m/s 745 mmHg 96%
    01:00 +19°C° 0 mm 3 m/s 745 mmHg 97%
    02:00 +19°C° 0 mm 3 m/s 745 mmHg 96%
    03:00 +18°C° 0 mm 3 m/s 745 mmHg 96%
    04:00 +18°C° 0 mm 4 m/s 745 mmHg 95%
    05:00 +19°C° 0 mm 4 m/s 746 mmHg 92%
    06:00 +19°C° 0 mm 3 m/s 746 mmHg 89%
    07:00 +20°C° 0 mm 3 m/s 747 mmHg 86%
    08:00 +21°C° 0 mm 3 m/s 747 mmHg 81%
    09:00 +22°C° 0 mm 3 m/s 747 mmHg 75%
    10:00 +24°C° 0 mm 3 m/s 747 mmHg 69%
    11:00 +24°C° 0 mm 3 m/s 746 mmHg 67%
    12:00 +25°C° 0 mm 3 m/s 746 mmHg 64%
    13:00 +26°C° 0 mm 3 m/s 746 mmHg 62%
    14:00 +25°C° 0 mm 3 m/s 746 mmHg 62%
    15:00 +25°C° 0 mm 3 m/s 746 mmHg 63%
    16:00 +25°C° 0 mm 3 m/s 745 mmHg 64%
    17:00 +24°C° 0 mm 3 m/s 745 mmHg 69%
    18:00 +23°C° 0 mm 2 m/s 745 mmHg 74%
    19:00 +21°C° 0 mm 2 m/s 745 mmHg 79%
    20:00 +20°C° 0 mm 2 m/s 746 mmHg 82%
    21:00 +19°C° 0 mm 2 m/s 746 mmHg 85%
    22:00 +18°C° 0 mm 2 m/s 746 mmHg 88%
    23:00 +18°C° 0 mm 2 m/s 746 mmHg 90%

    Amanhã, 18 Junho, Terça-feira

    Tempo Temperatura Precipitação Vento Pressão Humidade
    00:00 +17°C° 0 mm 2 m/s 746 mmHg 92%
    01:00 +16°C° 0 mm 2 m/s 746 mmHg 94%
    02:00 +16°C° 0 mm 2 m/s 746 mmHg 95%
    03:00 +16°C° 0 mm 2 m/s 746 mmHg 95%
    04:00 +16°C° 0 mm 2 m/s 745 mmHg 96%
    05:00 +17°C° 0 mm 3 m/s 746 mmHg 91%
    06:00 +18°C° 0 mm 3 m/s 746 mmHg 87%
    07:00 +20°C° 0 mm 4 m/s 746 mmHg 83%
    08:00 +21°C° 0 mm 4 m/s 746 mmHg 81%
    09:00 +22°C° 0 mm 4 m/s 746 mmHg 78%
    10:00 +23°C° 0 mm 4 m/s 746 mmHg 75%
    11:00 +23°C° 0 mm 4 m/s 745 mmHg 74%
    12:00 +25°C° 0 mm 4 m/s 745 mmHg 73%
    13:00 +26°C° 0 mm 4 m/s 745 mmHg 71%
    14:00 +26°C° 0 mm 4 m/s 744 mmHg 72%
    15:00 +26°C° 0 mm 4 m/s 744 mmHg 73%
    16:00 +26°C° 0 mm 4 m/s 744 mmHg 73%
    17:00 +25°C° 0 mm 4 m/s 744 mmHg 77%
    18:00 +23°C° 0 mm 4 m/s 743 mmHg 80%
    19:00 +22°C° 0 mm 4 m/s 743 mmHg 84%
    20:00 +21°C° 0.4 mm 4 m/s 743 mmHg 87%
    21:00 +20°C° 0.4 mm 4 m/s 743 mmHg 90%
    22:00 +20°C° 0.4 mm 3 m/s 743 mmHg 93%
    23:00 +19°C° 0.2 mm 3 m/s 743 mmHg 94%

    Depois de amanhã, 19 Junho, Quarta-feira

    Tempo Temperatura Precipitação Vento Pressão Humidade
    00:00 +19°C° 0.2 mm 3 m/s 743 mmHg 94%
    01:00 +19°C° 0.2 mm 4 m/s 742 mmHg 95%
    02:00 +19°C° 0.1 mm 3 m/s 742 mmHg 95%
    03:00 +19°C° 0.1 mm 3 m/s 742 mmHg 96%
    04:00 +19°C° 0.1 mm 3 m/s 742 mmHg 96%
    05:00 +20°C° 0 mm 3 m/s 742 mmHg 93%
    06:00 +21°C° 0 mm 3 m/s 742 mmHg 89%
    07:00 +24°C° 0 mm 3 m/s 742 mmHg 86%
    08:00 +25°C° 1.2 mm 3 m/s 742 mmHg 80%
    09:00 +27°C° 1.2 mm 3 m/s 742 mmHg 74%
    10:00 +28°C° 1.2 mm 3 m/s 742 mmHg 68%
    11:00 +28°C° 0.6 mm 3 m/s 741 mmHg 67%
    12:00 +29°C° 0.6 mm 3 m/s 741 mmHg 65%
    13:00 +29°C° 0.6 mm 3 m/s 741 mmHg 64%
    14:00 +29°C° 0.9 mm 3 m/s 741 mmHg 66%
    15:00 +29°C° 0.9 mm 2 m/s 740 mmHg 68%
    16:00 +28°C° 0.9 mm 2 m/s 740 mmHg 70%
    17:00 +27°C° 0.4 mm 2 m/s 740 mmHg 74%
    18:00 +26°C° 0.4 mm 1 m/s 740 mmHg 78%
    19:00 +25°C° 0.4 mm 1 m/s 740 mmHg 81%
    20:00 +24°C° 0 mm 1 m/s 740 mmHg 82%
    21:00 +23°C° 0 mm 1 m/s 741 mmHg 83%
    22:00 +22°C° 0 mm 1 m/s 741 mmHg 84%
    23:00 +22°C° 0 mm 1 m/s 741 mmHg 86%

    20 Junho, Quinta-feira

    Tempo Temperatura Precipitação Vento Pressão Humidade
    00:00 +21°C° 0 mm 1 m/s 741 mmHg 87%
    01:00 +21°C° 0 mm 1 m/s 740 mmHg 88%
    02:00 +21°C° 0 mm 1 m/s 741 mmHg 88%
    03:00 +21°C° 0 mm 1 m/s 741 mmHg 88%
    04:00 +21°C° 0 mm 1 m/s 741 mmHg 88%
    05:00 +22°C° 0 mm 1 m/s 741 mmHg 85%
    06:00 +22°C° 0 mm 0 m/s 741 mmHg 81%
    07:00 +23°C° 0 mm 0 m/s 741 mmHg 77%
    08:00 +25°C° 0.3 mm 0 m/s 741 mmHg 72%
    09:00 +28°C° 0.3 mm 1 m/s 741 mmHg 67%
    10:00 +29°C° 0.3 mm 1 m/s 742 mmHg 62%
    11:00 +28°C° 0 mm 0 m/s 741 mmHg 59%
    12:00 +28°C° 0 mm 0 m/s 741 mmHg 56%
    13:00 +29°C° 0 mm 0 m/s 741 mmHg 52%
    14:00 +30°C° 0.1 mm 1 m/s 741 mmHg 57%
    15:00 +30°C° 0.1 mm 2 m/s 741 mmHg 61%
    16:00 +29°C° 0.1 mm 2 m/s 741 mmHg 65%
    17:00 +27°C° 0.7 mm 2 m/s 741 mmHg 72%
    18:00 +25°C° 0.7 mm 1 m/s 741 mmHg 79%
    19:00 +23°C° 0.7 mm 1 m/s 741 mmHg 86%
    20:00 +22°C° 0.1 mm 1 m/s 741 mmHg 86%
    21:00 +21°C° 0.1 mm 1 m/s 741 mmHg 85%
    22:00 +20°C° 0.1 mm 1 m/s 742 mmHg 85%
    23:00 +20°C° 0 mm 1 m/s 742 mmHg 85%

    21 Junho, Sexta-feira

    Tempo Temperatura Precipitação Vento Pressão Humidade
    00:00 +20°C° 0 mm 1 m/s 742 mmHg 85%
    01:00 +20°C° 0 mm 1 m/s 742 mmHg 85%
    02:00 +19°C° 0 mm 1 m/s 742 mmHg 86%
    03:00 +19°C° 0 mm 1 m/s 742 mmHg 88%
    04:00 +19°C° 0 mm 1 m/s 742 mmHg 89%
    05:00 +21°C° 0 mm 1 m/s 742 mmHg 84%
    06:00 +22°C° 0 mm 1 m/s 742 mmHg 80%
    07:00 +24°C° 0 mm 1 m/s 742 mmHg 76%
    08:00 +25°C° 0 mm 1 m/s 742 mmHg 72%
    09:00 +27°C° 0 mm 1 m/s 742 mmHg 68%
    10:00 +28°C° 0 mm 1 m/s 742 mmHg 64%
    11:00 +29°C° 0 mm 1 m/s 742 mmHg 61%
    12:00 +30°C° 0 mm 1 m/s 742 mmHg 58%
    13:00 +31°C° 0 mm 1 m/s 741 mmHg 55%
    14:00 +31°C° 0 mm 1 m/s 741 mmHg 55%
    15:00 +31°C° 0 mm 1 m/s 741 mmHg 55%
    16:00 +31°C° 0 mm 1 m/s 741 mmHg 55%
    17:00 +29°C° 0.3 mm 1 m/s 741 mmHg 63%
    18:00 +28°C° 0.3 mm 1 m/s 741 mmHg 70%
    19:00 +26°C° 0.3 mm 1 m/s 741 mmHg 77%
    20:00 +25°C° 0.1 mm 1 m/s 741 mmHg 80%
    21:00 +24°C° 0.1 mm 2 m/s 741 mmHg 82%
    22:00 +23°C° 0.1 mm 2 m/s 741 mmHg 84%
    23:00 +23°C° 0 mm 2 m/s 741 mmHg 86%

    22 Junho, Sábado

    Tempo Temperatura Precipitação Vento Pressão Humidade
    00:00 +21°C° 0 mm 2 m/s 741 mmHg 87%
    01:00 +21°C° 0 mm 2 m/s 741 mmHg 89%
    02:00 +21°C° 0 mm 2 m/s 741 mmHg 89%
    03:00 +20°C° 0 mm 2 m/s 741 mmHg 90%
    04:00 +20°C° 0 mm 2 m/s 741 mmHg 90%
    05:00 +23°C° 0 mm 2 m/s 741 mmHg 86%
    06:00 +24°C° 0 mm 3 m/s 741 mmHg 82%
    07:00 +26°C° 0 mm 3 m/s 741 mmHg 78%
    08:00 +27°C° 0.1 mm 4 m/s 741 mmHg 72%
    09:00 +28°C° 0.1 mm 4 m/s 741 mmHg 67%
    10:00 +29°C° 0.1 mm 5 m/s 741 mmHg 62%
    11:00 +30°C° 0 mm 5 m/s 741 mmHg 61%
    12:00 +30°C° 0 mm 5 m/s 741 mmHg 59%
    13:00 +30°C° 0 mm 5 m/s 740 mmHg 58%
    14:00 +30°C° 0.1 mm 5 m/s 740 mmHg 61%
    15:00 +30°C° 0.1 mm 4 m/s 740 mmHg 64%
    16:00 +30°C° 0.1 mm 4 m/s 740 mmHg 67%
    17:00 +28°C° 0.1 mm 4 m/s 740 mmHg 71%
    18:00 +27°C° 0.1 mm 4 m/s 740 mmHg 76%
    19:00 +25°C° 0.1 mm 4 m/s 740 mmHg 80%
    20:00 +23°C° 0 mm 4 m/s 740 mmHg 82%
    21:00 +22°C° 0 mm 4 m/s 740 mmHg 84%
    22:00 +21°C° 0 mm 3 m/s 740 mmHg 86%
    23:00 +21°C° 0 mm 3 m/s 741 mmHg 87%
    Mostrar mais